TimeEST,TemperatureF,Dew PointF,Humidity,Sea Level PressureIn,VisibilityMPH,Wind Direction,Wind SpeedMPH,Gust SpeedMPH,PrecipitationIn,Events,Conditions,WindDirDegrees,DateUTC
12:15 AM,21.2,15.8,80,30.17,10.0,ESE,6.9,-,N/A,,Overcast,110,2013-02-10 05:15:00
12:55 AM,21.2,15.8,80,30.17,10.0,ESE,5.8,-,N/A,,Overcast,120,2013-02-10 05:55:00
1:15 AM,23.0,15.8,74,30.16,10.0,ESE,6.9,-,N/A,,Overcast,120,2013-02-10 06:15:00
1:35 AM,23.0,15.8,74,30.16,10.0,ESE,5.8,-,N/A,,Overcast,120,2013-02-10 06:35:00
1:55 AM,23.0,15.8,74,30.15,10.0,ESE,5.8,-,N/A,,Overcast,120,2013-02-10 06:55:00
2:15 AM,21.2,14.0,74,30.15,10.0,East,8.1,-,N/A,,Overcast,100,2013-02-10 07:15:00
2:35 AM,19.4,12.2,74,30.14,10.0,East,9.2,-,N/A,,Overcast,90,2013-02-10 07:35:00
2:55 AM,19.4,12.2,74,30.14,10.0,East,8.1,-,N/A,,Scattered Clouds,100,2013-02-10 07:55:00
3:15 AM,19.4,12.2,74,30.14,10.0,East,6.9,-,N/A,,Mostly Cloudy,100,2013-02-10 08:15:00
3:35 AM,19.4,14.0,80,30.13,10.0,East,6.9,-,N/A,,Overcast,100,2013-02-10 08:35:00
3:55 AM,19.4,14.0,80,30.13,10.0,East,6.9,-,N/A,,Scattered Clouds,100,2013-02-10 08:55:00
4:15 AM,17.6,10.4,73,30.12,10.0,East,5.8,-,N/A,,Partly Cloudy,80,2013-02-10 09:15:00
4:35 AM,15.8,10.4,79,30.12,10.0,East,6.9,-,N/A,,Clear,90,2013-02-10 09:35:00
4:55 AM,15.8,8.6,73,30.11,10.0,East,6.9,-,N/A,,Clear,90,2013-02-10 09:55:00
5:15 AM,15.8,10.4,79,30.10,9.0,East,8.1,-,N/A,,Partly Cloudy,80,2013-02-10 10:15:00
5:35 AM,15.8,12.2,86,30.10,10.0,East,9.2,-,N/A,,Partly Cloudy,100,2013-02-10 10:35:00
5:55 AM,15.8,12.2,86,30.10,10.0,East,9.2,-,N/A,,Clear,100,2013-02-10 10:55:00
6:15 AM,15.8,12.2,86,30.09,10.0,East,8.1,-,N/A,,Clear,90,2013-02-10 11:15:00
6:35 AM,15.8,12.2,86,30.09,10.0,East,8.1,-,N/A,,Clear,100,2013-02-10 11:35:00
6:55 AM,14.0,8.6,79,30.08,10.0,East,9.2,-,N/A,,Clear,90,2013-02-10 11:55:00
7:15 AM,15.8,10.4,79,30.08,10.0,East,6.9,-,N/A,,Clear,80,2013-02-10 12:15:00
7:35 AM,15.8,12.2,86,30.08,10.0,East,8.1,-,N/A,,Partly Cloudy,90,2013-02-10 12:35:00
7:55 AM,17.6,12.2,79,30.07,9.0,East,9.2,-,N/A,,Partly Cloudy,80,2013-02-10 12:55:00
8:15 AM,17.6,12.2,79,30.06,9.0,East,10.4,-,N/A,,Clear,90,2013-02-10 13:15:00
8:35 AM,17.6,12.2,79,30.06,8.0,East,8.1,-,N/A,,Scattered Clouds,90,2013-02-10 13:35:00
8:55 AM,17.6,12.2,79,30.05,8.0,East,8.1,-,N/A,,Scattered Clouds,90,2013-02-10 13:55:00
9:15 AM,19.4,14.0,80,30.03,9.0,East,8.1,-,N/A,,Clear,90,2013-02-10 14:15:00
9:35 AM,21.2,15.8,80,30.01,10.0,East,10.4,-,N/A,,Partly Cloudy,90,2013-02-10 14:35:00
9:55 AM,24.8,19.4,80,29.98,10.0,East,11.5,-,N/A,,Mostly Cloudy,100,2013-02-10 14:55:00
10:15 AM,26.6,19.4,74,29.97,10.0,East,11.5,-,N/A,,Partly Cloudy,100,2013-02-10 15:15:00
10:35 AM,28.4,17.6,64,29.96,10.0,East,12.7,-,N/A,,Scattered Clouds,100,2013-02-10 15:35:00
10:55 AM,30.2,19.4,64,29.98,10.0,ESE,8.1,-,N/A,,Mostly Cloudy,110,2013-02-10 15:55:00
11:15 AM,30.2,19.4,64,29.97,10.0,ESE,9.2,-,N/A,,Overcast,110,2013-02-10 16:15:00
11:35 AM,32.0,19.4,60,29.95,10.0,ESE,10.4,-,N/A,,Overcast,110,2013-02-10 16:35:00
11:55 AM,32.0,19.4,60,29.94,10.0,ESE,9.2,-,N/A,,Overcast,110,2013-02-10 16:55:00
12:15 PM,33.8,21.2,60,29.94,10.0,ESE,8.1,-,N/A,,Overcast,120,2013-02-10 17:15:00
12:35 PM,33.8,21.2,60,29.93,10.0,ESE,9.2,17.3,N/A,,Overcast,120,2013-02-10 17:35:00
12:55 PM,33.8,23.0,65,29.90,10.0,ESE,11.5,16.1,N/A,,Overcast,120,2013-02-10 17:55:00
1:15 PM,33.8,23.0,65,29.89,10.0,ESE,9.2,20.7,N/A,,Overcast,120,2013-02-10 18:15:00
1:35 PM,32.0,24.8,75,29.86,10.0,ESE,13.8,-,N/A,,Overcast,110,2013-02-10 18:35:00
1:55 PM,33.8,26.6,75,29.83,10.0,ESE,10.4,-,N/A,,Overcast,120,2013-02-10 18:55:00
2:15 PM,33.8,26.6,75,29.82,10.0,ESE,9.2,-,N/A,,Overcast,110,2013-02-10 19:15:00
2:35 PM,33.8,28.4,81,29.80,10.0,SE,11.5,17.3,N/A,,Overcast,130,2013-02-10 19:35:00
2:55 PM,33.8,28.4,81,29.78,10.0,ESE,11.5,18.4,N/A,,Overcast,120,2013-02-10 19:55:00
3:15 PM,33.8,28.4,81,29.76,7.0,SE,10.4,18.4,N/A,,Overcast,130,2013-02-10 20:15:00
3:35 PM,33.8,28.4,81,29.74,6.0,ESE,10.4,18.4,N/A,,Overcast,120,2013-02-10 20:35:00
3:55 PM,33.8,28.4,81,29.72,5.0,ESE,13.8,18.4,0.01,,Overcast,120,2013-02-10 20:55:00
4:15 PM,33.8,30.2,87,29.70,5.0,ESE,10.4,20.7,0.01,,Overcast,120,2013-02-10 21:15:00
4:35 PM,33.8,30.2,87,29.68,5.0,SE,10.4,18.4,0.02,,Overcast,130,2013-02-10 21:35:00
4:55 PM,33.8,30.2,87,29.66,5.0,ESE,13.8,20.7,0.03,,Overcast,120,2013-02-10 21:55:00
5:15 PM,35.6,30.2,81,29.65,3.0,SE,11.5,19.6,0.02,,Overcast,130,2013-02-10 22:15:00
5:35 PM,33.8,30.2,87,29.64,4.0,ESE,16.1,23.0,0.03,,Overcast,120,2013-02-10 22:35:00
5:55 PM,33.8,30.2,87,29.63,6.0,ESE,13.8,23.0,0.04,,Overcast,120,2013-02-10 22:55:00
6:15 PM,33.8,30.2,87,29.61,6.0,ESE,13.8,21.9,N/A,,Mostly Cloudy,120,2013-02-10 23:15:00
6:35 PM,35.6,30.2,81,29.61,5.0,SE,13.8,23.0,0.01,,Overcast,130,2013-02-10 23:35:00
6:55 PM,35.6,30.2,81,29.59,5.0,SE,12.7,25.3,0.02,,Overcast,130,2013-02-10 23:55:00
7:15 PM,35.6,30.2,81,29.60,5.0,SE,13.8,18.4,0.01,,Overcast,130,2013-02-11 00:15:00
7:35 PM,35.6,32.0,87,29.60,4.0,SE,13.8,18.4,0.04,,Overcast,130,2013-02-11 00:35:00
7:55 PM,35.6,33.8,93,29.59,5.0,SE,13.8,23.0,0.07,,Overcast,140,2013-02-11 00:55:00
8:15 PM,35.6,33.8,93,29.58,5.0,SE,13.8,17.3,0.02,,Overcast,130,2013-02-11 01:15:00
8:35 PM,35.6,33.8,93,29.57,5.0,SE,11.5,-,0.05,,Overcast,130,2013-02-11 01:35:00
8:55 PM,37.4,33.8,87,29.56,4.0,SE,9.2,18.4,0.08,,Overcast,130,2013-02-11 01:55:00
9:15 PM,37.4,33.8,87,29.55,5.0,SE,10.4,20.7,0.02,,Overcast,140,2013-02-11 02:15:00
9:35 PM,37.4,35.6,93,29.54,10.0,SE,10.4,17.3,0.03,,Overcast,140,2013-02-11 02:35:00
9:55 PM,37.4,35.6,93,29.53,10.0,SSE,10.4,-,0.03,,Overcast,150,2013-02-11 02:55:00
10:15 PM,37.4,35.6,93,29.52,10.0,ESE,8.1,16.1,N/A,,Overcast,120,2013-02-11 03:15:00
10:35 PM,37.4,35.6,93,29.51,10.0,SE,10.4,16.1,N/A,,Overcast,140,2013-02-11 03:35:00
10:55 PM,39.2,35.6,87,29.49,10.0,SE,8.1,-,N/A,,Overcast,140,2013-02-11 03:55:00
11:35 PM,39.2,37.4,93,29.47,7.0,SSE,8.1,-,0.04,,Overcast,160,2013-02-11 04:35:00
11:55 PM,39.2,37.4,93,29.47,7.0,SSE,10.4,-,0.04,,Overcast,160,2013-02-11 04:55:00